Weather History for Lincoln, CA

Change the Weather History Date:

Sunday, May 26, 2013

  Actual Average (KAUN) Record (KAUN)
Temperature  
Mean Temperature 66 °F -  
Max Temperature 78 °F 79 °F 96 °F (1951)
Min Temperature 53 °F 52 °F 38 °F (1980)
Growing Degree Days 16 (Base 50)    
Moisture  
Dew Point 43 °F    
Average Humidity 48    
Maximum Humidity 77    
Minimum Humidity 18    
Precipitation  
Precipitation 0.00 in - - ()
Sea Level Pressure  
Sea Level Pressure 30.01 in    
Wind  
Wind Speed 10 mph (SSE)    
Max Wind Speed 16 mph    
Max Gust Speed 21 mph    
Visibility 10 miles    
Events      
Averages and records for this station are not official NWS values.
T = Trace of Precipitation, MM = Missing Value Source: NWS Daily Summary

Daily Weather History Graph

Daily Weather History Graph

Search for Another Location

Airport:

Trip Planner

Search our weather history database for the weather conditions in past years. The results will help you decide how hot, cold, wet, or windy it might be!

Date:

Astronomy

May. 26, 2013 Rise Set
Actual Time 5:44 AM PDT 8:20 PM PDT
Civil Twilight 5:13 AM PDT 8:51 PM PDT
Nautical Twilight 4:35 AM PDT 9:30 PM PDT
Astronomical Twilight 3:51 AM PDT 10:13 PM PDT
Moon 10:13 PM PDT (5/26) 7:19 AM PDT (5/26)
Length of Visible Light 15h 38m
Length of Day
14h 36m
Waning Gibbous, 96% of the Moon is Illuminated
May 26
Waning Gibbous
May 31
Last Quarter
Jun 8
New
Jun 16
First Quarter
Jun 23
Full

Hourly Weather History & Observations

Time (PDT) Temp. Dew Point Humidity Pressure Visibility Wind Dir Wind Speed Gust Speed Precip Events Conditions
12:15 AM 59.0 °F 44.6 °F 59% 29.97 in 10.0 mi SE 11.5 mph - N/A   Clear
12:35 AM 59.0 °F 44.6 °F 59% 29.98 in 10.0 mi SE 13.8 mph 18.4 mph N/A   Clear
12:55 AM 57.2 °F 44.6 °F 63% 29.98 in 10.0 mi SE 11.5 mph 16.1 mph N/A   Clear
1:15 AM 55.4 °F 44.6 °F 67% 29.98 in 10.0 mi SE 13.8 mph - N/A   Clear
1:35 AM 55.4 °F 44.6 °F 67% 29.98 in 10.0 mi SE 10.4 mph - N/A   Clear
1:55 AM 55.4 °F 44.6 °F 67% 29.98 in 10.0 mi SE 9.2 mph - N/A   Clear
2:15 AM 55.4 °F 44.6 °F 67% 29.98 in 10.0 mi SE 11.5 mph - N/A   Clear
2:35 AM 55.4 °F 44.6 °F 67% 29.98 in 10.0 mi SE 10.4 mph - N/A   Clear
2:55 AM 55.4 °F 44.6 °F 67% 29.98 in 10.0 mi SE 10.4 mph - N/A   Clear
3:15 AM 55.4 °F 44.6 °F 67% 29.98 in 10.0 mi SE 9.2 mph - N/A   Clear
3:35 AM 55.4 °F 44.6 °F 67% 29.98 in 10.0 mi SE 11.5 mph - N/A   Clear
3:55 AM 53.6 °F 44.6 °F 72% 29.98 in 10.0 mi SE 11.5 mph 17.3 mph N/A   Clear
4:15 AM 53.6 °F 44.6 °F 72% 29.99 in 10.0 mi SE 12.7 mph 17.3 mph N/A   Clear
4:35 AM 53.6 °F 44.6 °F 72% 29.99 in 10.0 mi SE 13.8 mph 17.3 mph N/A   Clear
4:55 AM 53.6 °F 44.6 °F 72% 29.99 in 10.0 mi SE 12.7 mph - N/A   Clear
5:15 AM 53.6 °F 44.6 °F 72% 29.99 in 10.0 mi SE 10.4 mph 17.3 mph N/A   Clear
5:35 AM 53.6 °F 44.6 °F 72% 29.99 in 10.0 mi SE 12.7 mph - N/A   Clear
5:55 AM 53.6 °F 46.4 °F 77% 30.00 in 10.0 mi SE 11.5 mph - N/A   Clear
6:15 AM 53.6 °F 46.4 °F 77% 30.00 in 10.0 mi SE 9.2 mph - N/A   Clear
6:35 AM 55.4 °F 46.4 °F 72% 30.01 in 10.0 mi SE 11.5 mph 16.1 mph N/A   Clear
6:55 AM 55.4 °F 46.4 °F 72% 30.01 in 10.0 mi SE 11.5 mph 16.1 mph N/A   Clear
7:15 AM 57.2 °F 46.4 °F 67% 30.02 in 10.0 mi SE 13.8 mph 17.3 mph N/A   Clear
7:35 AM 57.2 °F 46.4 °F 67% 30.02 in 10.0 mi SE 15.0 mph 20.7 mph N/A   Clear
7:55 AM 59.0 °F 46.4 °F 63% 30.02 in 10.0 mi SE 13.8 mph 18.4 mph N/A   Clear
8:15 AM 59.0 °F 46.4 °F 63% 30.03 in 10.0 mi SSE 16.1 mph - N/A   Clear
8:35 AM 60.8 °F 46.4 °F 59% 30.03 in 10.0 mi SSE 16.1 mph - N/A   Clear
8:55 AM 60.8 °F 46.4 °F 59% 30.04 in 10.0 mi SSE 13.8 mph - N/A   Clear
9:15 AM 62.6 °F 46.4 °F 55% 30.04 in 10.0 mi SE 12.7 mph 18.4 mph N/A   Clear
9:35 AM 64.4 °F 46.4 °F 52% 30.04 in 10.0 mi SE 10.4 mph - N/A   Clear
9:55 AM 64.4 °F 46.4 °F 52% 30.05 in 10.0 mi SE 11.5 mph - N/A   Clear
10:15 AM 64.4 °F 46.4 °F 52% 30.05 in 10.0 mi SSE 11.5 mph - N/A   Clear
10:35 AM 68.0 °F 46.4 °F 46% 30.05 in 10.0 mi SSE 12.7 mph - N/A   Scattered Clouds
10:55 AM 68.0 °F 46.4 °F 46% 30.05 in 10.0 mi South 9.2 mph - N/A   Mostly Cloudy
11:15 AM 68.0 °F 46.4 °F 46% 30.05 in 10.0 mi South 11.5 mph 16.1 mph N/A   Scattered Clouds
11:35 AM 69.8 °F 46.4 °F 43% 30.05 in 10.0 mi South 6.9 mph 16.1 mph N/A   Clear
11:55 AM 69.8 °F 46.4 °F 43% 30.05 in 10.0 mi South 10.4 mph - N/A   Clear
12:15 PM 71.6 °F 44.6 °F 38% 30.05 in 10.0 mi South 6.9 mph 16.1 mph N/A   Clear
12:35 PM 71.6 °F 44.6 °F 38% 30.04 in 10.0 mi WSW 8.1 mph - N/A   Clear
12:55 PM 73.4 °F 42.8 °F 33% 30.04 in 10.0 mi SW 4.6 mph - N/A   Clear
1:15 PM 73.4 °F 42.8 °F 33% 30.03 in 10.0 mi West 5.8 mph - N/A   Clear
1:35 PM 73.4 °F 42.8 °F 33% 30.03 in 10.0 mi WSW 5.8 mph - N/A   Clear
1:55 PM 73.4 °F 41.0 °F 31% 30.03 in 10.0 mi WSW 6.9 mph - N/A   Clear
2:15 PM 75.2 °F 37.4 °F 25% 30.03 in 10.0 mi SW 6.9 mph - N/A   Clear
2:35 PM 75.2 °F 37.4 °F 25% 30.02 in 10.0 mi Calm Calm - N/A   Clear
2:55 PM 77.0 °F 37.4 °F 24% 30.02 in 10.0 mi SE 3.5 mph - N/A   Clear
3:15 PM 78.8 °F 37.4 °F 23% 30.01 in 10.0 mi SW 6.9 mph - N/A   Clear
3:35 PM 77.0 °F 37.4 °F 24% 30.01 in 10.0 mi SW 5.8 mph - N/A   Clear
3:55 PM 77.0 °F 35.6 °F 22% 30.00 in 10.0 mi Calm Calm - N/A   Clear
4:15 PM 78.8 °F 35.6 °F 21% 30.00 in 10.0 mi West 5.8 mph - N/A   Clear
4:35 PM 77.0 °F 35.6 °F 22% 29.99 in 10.0 mi South 3.5 mph - N/A   Clear
4:55 PM 78.8 °F 35.6 °F 21% 29.99 in 10.0 mi Calm Calm - N/A   Clear
5:15 PM 78.8 °F 32.0 °F 18% 29.99 in 10.0 mi Calm Calm - N/A   Clear
5:35 PM 78.8 °F 32.0 °F 18% 29.98 in 10.0 mi SSW 3.5 mph - N/A   Clear
5:55 PM 78.8 °F 32.0 °F 18% 29.98 in 10.0 mi SSE 5.8 mph - N/A   Clear
6:15 PM 78.8 °F 32.0 °F 18% 29.97 in 10.0 mi SE 3.5 mph - N/A   Clear
6:35 PM 78.8 °F 35.6 °F 21% 29.97 in 10.0 mi SSW 5.8 mph - N/A   Clear
6:55 PM 78.8 °F 35.6 °F 21% 29.97 in 10.0 mi SSE 5.8 mph - N/A   Clear
7:15 PM 77.0 °F 42.8 °F 29% 29.97 in 10.0 mi South 10.4 mph - N/A   Clear
7:35 PM 75.2 °F 42.8 °F 31% 29.98 in 10.0 mi South 12.7 mph 16.1 mph N/A   Clear
7:55 PM 73.4 °F 44.6 °F 36% 29.98 in 10.0 mi South 15.0 mph - N/A   Clear
8:15 PM 71.6 °F 44.6 °F 38% 29.99 in 10.0 mi South 13.8 mph - N/A   Clear
8:35 PM 69.8 °F 44.6 °F 40% 29.99 in 10.0 mi South 11.5 mph - N/A   Clear
8:55 PM 68.0 °F 46.4 °F 46% 30.00 in 10.0 mi South 9.2 mph - N/A   Clear
9:15 PM 64.4 °F 44.6 °F 49% 30.01 in 10.0 mi South 9.2 mph - N/A   Clear
9:35 PM 64.4 °F 44.6 °F 49% 30.01 in 10.0 mi SSE 10.4 mph - N/A   Clear
9:55 PM 64.4 °F 44.6 °F 49% 30.03 in 10.0 mi SSE 9.2 mph - N/A   Clear
10:15 PM 62.6 °F 44.6 °F 52% 30.04 in 10.0 mi SSE 8.1 mph - N/A   Clear
10:35 PM 62.6 °F 44.6 °F 52% 30.05 in 10.0 mi SSE 6.9 mph - N/A   Clear
10:55 PM 62.6 °F 46.4 °F 55% 30.05 in 10.0 mi SE 10.4 mph - N/A   Clear
11:15 PM 62.6 °F 44.6 °F 52% 30.05 in 10.0 mi SE 11.5 mph 16.1 mph N/A   Clear
11:35 PM 60.8 °F 46.4 °F 59% 30.05 in 10.0 mi SE 15.0 mph 18.4 mph N/A   Clear
11:55 PM 60.8 °F 46.4 °F 59% 30.05 in 10.0 mi SE 12.7 mph 18.4 mph N/A   Clear